This is the latest recevied weather packets stored in our database for station/object KG7MRB. If no packets are shown the sender has not sent any weather packets the latest 10 day(s).
| Time | Temp. | Humidity | Pressure | Rain* | Wind** | Luminosity | Snow |
|---|---|---|---|---|---|---|---|
| 1778117017 | 13.33° C | 85% | 1037.7 hPa | 0 mm | - | 42 W/m² | - |
| 1778116715 | 13.33° C | 85% | 1037.9 hPa | 0 mm | - | 54 W/m² | - |
| 1778116412 | 13.33° C | 85% | 1037.9 hPa | 0 mm | - | 67 W/m² | - |
| 1778116106 | 13.33° C | 85% | 1037.9 hPa | 0 mm | - | 78 W/m² | - |
| 1778115802 | 13.33° C | 85% | 1037.8 hPa | 0 mm | - | 88 W/m² | - |
| 1778115500 | 13.33° C | 85% | 1037.8 hPa | 0 mm | - | 96 W/m² | - |
| 1778115196 | 13.33° C | 86% | 1037.8 hPa | 0 mm | - | 106 W/m² | - |
| 1778114892 | 13.33° C | 87% | 1037.9 hPa | 0 mm | - | 93 W/m² | - |
| 1778114590 | 13.33° C | 89% | 1038 hPa | 0 mm | - | 85 W/m² | - |
| 1778114287 | 12.78° C | 91% | 1037.9 hPa | 0 mm | - | 117 W/m² | - |
| 1778113976 | 12.78° C | 92% | 1038.2 hPa | 0 mm | - | 108 W/m² | - |
| 1778113672 | 12.78° C | 91% | 1038.1 hPa | 0 mm | - | 93 W/m² | - |
| 1778113368 | 12.78° C | 91% | 1038 hPa | 0 mm | - | 113 W/m² | - |
| 1778113065 | 12.78° C | 92% | 1037.9 hPa | 0 mm | - | 105 W/m² | - |
| 1778112763 | 12.78° C | 92% | 1037.9 hPa | 0 mm | - | 99 W/m² | - |
| 1778112459 | 12.22° C | 92% | 1038.1 hPa | 0 mm | - | 96 W/m² | - |
| 1778112155 | 12.22° C | 92% | 1038 hPa | 0 mm | - | 69 W/m² | - |
| 1778111852 | 12.22° C | 93% | 1038.1 hPa | 0 mm | - | 61 W/m² | - |
| 1778111547 | 12.22° C | 93% | 1038.2 hPa | 0 mm | - | 46 W/m² | - |
| 1778111244 | 12.22° C | 93% | 1038.3 hPa | 0 mm | - | 52 W/m² | - |
| 1778110941 | 12.22° C | 93% | 1038.1 hPa | 0 mm | - | 55 W/m² | - |
| 1778110639 | 12.22° C | 93% | 1038.2 hPa | 0 mm | - | 60 W/m² | - |
| 1778110335 | 11.67° C | 94% | 1038.1 hPa | 0 mm | - | 67 W/m² | - |
| 1778110032 | 11.67° C | 94% | 1038.2 hPa | 0 mm | - | 69 W/m² | - |
| 1778109727 | 11.67° C | 95% | 1038.1 hPa | 0 mm | - | 60 W/m² | - |
* Rain latest hour (hover to see other rain measurements)
** Current wind speed in m/s (hover to see current wind gust speed)